Location: Unspecified
(41.1637°N, 24.2901°E)
Time: 11:35:56
(UTC+02:00)

ISS - Pass Details

Date: 10 May 2026
Orbit: 414 x 424 km, 51.6° (Epoch: 12 May)

Event Time Altitude Azimuth Distance (km) Brightness Sun altitude
Exits shadow 04:15:45 14° 228° (SW) 1,265 -2.0 -9.8°
Drops below altitude 10° 04:17:31 10° 196° (SSW) 1,492 -1.4 -9.5°
Sets 04:20:19 0° 170° (S) 2,353 -0.2 -9.0°
